Location: Columbia
(38.9520°N, 92.3340°W)
Time: 18:48:20
(UTC-05:00)

Iridium 22 - Visible Passes

Search period start: 02 September 2015 00:00
Search period end: 12 September 2015 00:00
Orbit: 776 x 779 km, 86.4° (Epoch: 02 September)

Date Brightness Start Highest point End Pass type
(mag) Time Alt. Az. Time Alt. Az. Time Alt. Az.
02 Sep 8.3 01:36:09 10° N 01:36:47 14° N 01:36:47 14° N visible
03 Sep 8.3 01:02:39 10° N 01:03:13 13° N 01:03:13 13° N visible
04 Sep 8.4 00:29:30 10° NNE 00:29:38 11° NNE 00:29:38 11° NNE visible
05 Sep 8.5 01:36:23 10° NNW 01:36:31 11° NNW 01:36:31 11° NNW visible
06 Sep 8.5 01:02:41 10° N 01:02:57 11° N 01:02:57 11° N visible
07 Sep 8.5 00:29:19 10° N 00:29:23 10° N 00:29:23 10° N visible
